Regional Weather Roundup
Issued by NWS Cleveland, OH

Home | Current Version | Previous Version | Graphics & Text | Print | Product List | Glossary On
Versions: 1 2 3 4 5 6 7 8 9 10 11 12 13 14 15 16 17 18 19 20 21 22 23 24 25 26 27 28 29 30 31 32 33 34 35 36 37 38 39 40 41 42 43 44 45 46 47 48 49 50
000
ASUS41 KCLE 281010
RWRCLE
OHIO REGIONAL WEATHER ROUNDUP
NATIONAL WEATHER SERVICE WILMINGTON, OH
600 AM EDT TUE APR 28 2015

NOTE: "FAIR" INDICATES FEW OR NO CLOUDS BELOW 12,000 FEET WITH NO
SIGNIFICANT WEATHER AND/OR OBSTRUCTIONS TO VISIBILITY.

OHZ001>008-015>018-024>027-034-035-043-044-281100-
   NORTHWEST OHIO

CITY           SKY/WX    TMP DP  RH WIND       PRES   REMARKS
DEFIANCE       CLEAR     34  30  85 CALM      30.13R
FINDLAY        CLEAR     34  31  88 CALM      30.10R
TOLEDO EXPRESS CLEAR     32  29  88 W3        30.11S
TOLEDO EXEC    CLEAR     35  32  88 W3        30.12R
LIMA           CLEAR     34  31  88 CALM      30.10R
$$

OHZ009>014-019>023-028>033-038-089-281100-
   NORTHEAST OHIO

CITY           SKY/WX    TMP DP  RH WIND       PRES   REMARKS
CLE-HOPKINS    CLEAR     35  31  85 W5        30.09R
CLE-LAKEFRONT  CLEAR     41  34  76 W6        30.07R
CUY CO. ARPT   NOT AVBL
LORAIN-ELYRIA  CLEAR     33  31  92 NW6       30.09R WCI  28
ASHTABULA      CLEAR     35  32  88 NW5       30.06R
AKRON-CANTON   PTCLDY    33  29  85 NW5       30.05R WCI  29
WOOSTER        CLEAR     32  30  92 CALM      30.07R
MANSFIELD      CLEAR     32  30  92 NW3       30.07R
YOUNGSTOWN     PTCLDY    33  32  96 NW7       30.03R WCI  27
$$

OHZ042-051>053-060>062-070>072-077>081-281100-
  SOUTHWEST OHIO

CITY           SKY/WX    TMP DP  RH WIND       PRES   REMARKS
CINC-COVINGTON CLEAR     41  36  82 N6        30.09R
CINC-LUNKEN    CLEAR     36  35  96 CALM      30.12R FOG
HAMILTON       CLEAR     34  33  96 CALM      30.12R
DAYTON         CLEAR     37  34  89 CALM      30.11R
WRIGHT-PAT AFB CLEAR     32  32  98 CALM      30.11R
DAYTON GENERAL CLEAR     38  34  85 CALM      30.09R
WILMINGTON     CLEAR     36  32  85 N3        30.09R
$$

OHZ036-037-039>041-045>050-054>059-063>069-073>076-082>088-281100-
  CENTRAL AND SOUTHEAST OHIO

CITY           SKY/WX    TMP DP  RH WIND       PRES   REMARKS
COLUMBUS       CLEAR     36  33  89 N3        30.08R
OSU AIRPORT    CLEAR     35  32  88 N5        30.08R
BOLTON FIELD   CLEAR     34  33  96 W5        30.09R WCI  30
RICKENBACK AFB CLEAR     35  33  92 NW5       30.08R
NEWARK         CLEAR     31  28  89 CALM      30.07R FOG
MARION         CLEAR     32  29  88 N5        30.09R WCI  27
LANCASTER      CLEAR     32  30  92 CALM      30.08R
ZANESVILLE     CLEAR     32  30  92 W3        30.06R
NEW PHILLY     CLEAR     37  33  85 W3        30.06R
$$



USA.gov is the U.S. government's official web portal to all federal, state and local government web resources and services.